KLM777 EDDM-EDDF

Flight info

Callsign KLM777
Flight time 0h 44m
Altitude 24000
Route GIVMI6Q/08L GIVMI Y101 ERNAS T161 DEBHI DEBHI1B
Aircraft A359/H-SDE2E3GHIJ3J4J5LM1ORWXY/LB1D1

Departure

Time 2026-04-17 09:33
Airport Munich Airport (EDDM)

Arrival

Time 2026-04-17 10:17
Airport Frankfurt Main Airport (EDDF)
Time Latitude Longitude Altitude Speed Heading
2026-04-17 09:06 48.35883 11.79231 1473 ft 0 kts 263°
2026-04-17 09:24 48.35885 11.79253 1461 ft 3 kts 263°
2026-04-17 09:24 48.35884 11.79283 1467 ft 3 kts 284°
2026-04-17 09:24 48.35878 11.79309 1461 ft 3 kts 304°
2026-04-17 09:24 48.35866 11.79330 1461 ft 3 kts 324°
2026-04-17 09:25 48.35853 11.79341 1461 ft 0 kts 339°
2026-04-17 09:25 48.35884 11.79337 1461 ft 17 kts
2026-04-17 09:25 48.35918 11.79357 1465 ft 0 kts 33°
2026-04-17 09:26 48.35903 11.79346 1464 ft 3 kts 14°
2026-04-17 09:26 48.35887 11.79342 1461 ft 0 kts 356°
2026-04-17 09:26 48.35906 11.79341 1461 ft 15 kts 359°
2026-04-17 09:26 48.36020 11.79332 1468 ft 17 kts 350°
2026-04-17 09:27 48.36031 11.79330 1467 ft 0 kts 349°
2026-04-17 09:27 48.36033 11.79329 1466 ft 0 kts 349°
2026-04-17 09:28 48.36058 11.79303 1462 ft 12 kts 311°
2026-04-17 09:29 48.36067 11.78990 1466 ft 37 kts 263°
2026-04-17 09:29 48.36035 11.78606 1465 ft 35 kts 262°
2026-04-17 09:29 48.36007 11.78252 1473 ft 35 kts 265°
2026-04-17 09:29 48.35982 11.77881 1465 ft 36 kts 263°
2026-04-17 09:30 48.35953 11.77496 1468 ft 38 kts 263°
2026-04-17 09:30 48.35925 11.77105 1466 ft 36 kts 264°
2026-04-17 09:30 48.35974 11.76842 1466 ft 19 kts 341°
2026-04-17 09:30 48.36107 11.76800 1467 ft 21 kts 352°
2026-04-17 09:31 48.36242 11.76818 1468 ft 14 kts 34°
2026-04-17 09:31 48.36287 11.76937 1465 ft 13 kts 76°
2026-04-17 09:31 48.36300 11.77061 1476 ft 11 kts 83°
2026-04-17 09:31 48.36304 11.77112 1472 ft 0 kts 83°
2026-04-17 09:32 48.36305 11.77121 1475 ft 5 kts 83°
2026-04-17 09:32 48.36330 11.77547 1476 ft 79 kts 85°
2026-04-17 09:32 48.36425 11.78710 1463 ft 142 kts 84°
2026-04-17 09:32 48.36576 11.80300 1981 ft 152 kts 82°
2026-04-17 09:33 48.36700 11.81726 3048 ft 136 kts 84°
2026-04-17 09:33 48.36799 11.83223 3472 ft 158 kts 84°
2026-04-17 09:33 48.36917 11.85044 3711 ft 191 kts 84°
2026-04-17 09:33 48.37060 11.87202 3975 ft 222 kts 84°
2026-04-17 09:34 48.37233 11.89650 4249 ft 248 kts 83°
2026-04-17 09:34 48.37431 11.92288 4490 ft 258 kts 84°
2026-04-17 09:34 48.37622 11.94983 4732 ft 260 kts 83°
2026-04-17 09:34 48.37932 11.97673 4989 ft 262 kts 73°
2026-04-17 09:35 48.38712 12.00142 5245 ft 264 kts 55°
2026-04-17 09:35 48.40054 12.01950 5475 ft 265 kts 29°
2026-04-17 09:35 48.41792 12.02916 5736 ft 268 kts 17°
2026-04-17 09:35 48.43650 12.03284 6008 ft 271 kts 359°
2026-04-17 09:36 48.45489 12.02648 6247 ft 273 kts 342°
2026-04-17 09:36 48.47225 12.01383 6506 ft 284 kts 327°
2026-04-17 09:36 48.48579 11.99245 7234 ft 283 kts 302°
2026-04-17 09:36 48.49376 11.96561 8067 ft 280 kts 291°
2026-04-17 09:37 48.50001 11.93772 8753 ft 281 kts 289°
2026-04-17 09:37 48.50589 11.90959 9362 ft 282 kts 288°
2026-04-17 09:37 48.51174 11.88127 9914 ft 283 kts 289°
2026-04-17 09:37 48.51764 11.85283 10404 ft 285 kts 289°
2026-04-17 09:38 48.52358 11.82423 10886 ft 286 kts 288°
2026-04-17 09:38 48.52943 11.79547 11339 ft 288 kts 288°
2026-04-17 09:38 48.53526 11.76656 11736 ft 288 kts 288°
2026-04-17 09:38 48.54115 11.73752 12111 ft 290 kts 288°
2026-04-17 09:39 48.54710 11.70845 12386 ft 290 kts 289°
2026-04-17 09:39 48.55319 11.67974 12600 ft 292 kts 290°
2026-04-17 09:39 48.55940 11.65051 12792 ft 293 kts 290°
2026-04-17 09:39 48.56559 11.62120 13017 ft 293 kts 290°
2026-04-17 09:40 48.57378 11.59308 13220 ft 293 kts 303°
2026-04-17 09:40 48.58598 11.56825 13348 ft 297 kts 310°
2026-04-17 09:40 48.59944 11.54422 13451 ft 301 kts 311°
2026-04-17 09:40 48.61325 11.52002 13543 ft 305 kts 311°
2026-04-17 09:41 48.62723 11.49543 13710 ft 315 kts 311°
2026-04-17 09:41 48.64184 11.46965 13984 ft 330 kts 311°
2026-04-17 09:41 48.65693 11.44296 14263 ft 343 kts 311°
2026-04-17 09:41 48.67262 11.41527 14670 ft 350 kts 311°
2026-04-17 09:42 48.68852 11.38710 15230 ft 352 kts 311°
2026-04-17 09:42 48.70579 11.36066 15756 ft 354 kts 319°
2026-04-17 09:42 48.72519 11.33749 16313 ft 356 kts 323°
2026-04-17 09:42 48.74562 11.31601 16857 ft 358 kts 326°
2026-04-17 09:43 48.76658 11.29534 17387 ft 361 kts 327°
2026-04-17 09:43 48.78787 11.27487 17958 ft 363 kts 327°
2026-04-17 09:43 48.80931 11.25422 18489 ft 366 kts 327°
2026-04-17 09:43 48.83072 11.23317 18955 ft 368 kts 326°
2026-04-17 09:44 48.85085 11.20967 19413 ft 370 kts 320°
2026-04-17 09:44 48.87052 11.18433 19879 ft 372 kts 319°
2026-04-17 09:44 48.88993 11.15811 20346 ft 374 kts 318°
2026-04-17 09:44 48.90917 11.13133 20795 ft 376 kts 317°
2026-04-17 09:45 48.92834 11.10422 21261 ft 378 kts 317°
2026-04-17 09:45 48.94763 11.07686 21698 ft 380 kts 317°
2026-04-17 09:45 48.96700 11.04944 22130 ft 382 kts 317°
2026-04-17 09:45 48.98653 11.02188 22580 ft 384 kts 317°
2026-04-17 09:46 49.00623 10.99419 23004 ft 386 kts 317°
2026-04-17 09:46 49.02598 10.96643 23419 ft 388 kts 317°
2026-04-17 09:46 49.04590 10.93844 23855 ft 390 kts 317°
2026-04-17 09:46 49.06589 10.91032 24152 ft 392 kts 317°
2026-04-17 09:47 49.08594 10.88208 24244 ft 393 kts 317°
2026-04-17 09:47 49.10599 10.85376 24252 ft 393 kts 317°
2026-04-17 09:47 49.12611 10.82532 24248 ft 394 kts 317°
2026-04-17 09:47 49.14626 10.79678 24251 ft 395 kts 317°
2026-04-17 09:48 49.16613 10.76859 24254 ft 395 kts 317°
2026-04-17 09:48 49.18626 10.74000 24256 ft 395 kts 317°
2026-04-17 09:48 49.20595 10.71082 24256 ft 395 kts 315°
2026-04-17 09:48 49.22526 10.68073 24257 ft 395 kts 314°
2026-04-17 09:49 49.24443 10.65045 24256 ft 395 kts 314°
2026-04-17 09:49 49.26352 10.62026 24257 ft 395 kts 314°
2026-04-17 09:49 49.28266 10.58999 24256 ft 395 kts 314°
2026-04-17 09:49 49.30181 10.55969 24258 ft 395 kts 314°
2026-04-17 09:50 49.32096 10.52940 24257 ft 395 kts 314°
2026-04-17 09:50 49.34014 10.49904 24256 ft 396 kts 314°
2026-04-17 09:50 49.35925 10.46875 24252 ft 396 kts 312°
2026-04-17 09:50 49.37587 10.43501 24247 ft 396 kts 306°
2026-04-17 09:51 49.39138 10.40070 24247 ft 396 kts 305°
2026-04-17 09:51 49.40706 10.36588 24249 ft 397 kts 306°
2026-04-17 09:51 49.42277 10.33110 24247 ft 397 kts 306°
2026-04-17 09:51 49.43853 10.29629 24249 ft 397 kts 306°
2026-04-17 09:52 49.45430 10.26153 24247 ft 397 kts 306°
2026-04-17 09:52 49.47009 10.22675 24246 ft 397 kts 306°
2026-04-17 09:52 49.48587 10.19195 24246 ft 397 kts 306°
2026-04-17 09:52 49.50169 10.15705 24238 ft 397 kts 306°
2026-04-17 09:53 49.51748 10.12217 24233 ft 397 kts 306°
2026-04-17 09:53 49.53327 10.08723 24234 ft 397 kts 306°
2026-04-17 09:53 49.54903 10.05230 24234 ft 397 kts 306°
2026-04-17 09:53 49.56458 10.01779 24233 ft 397 kts 306°
2026-04-17 09:54 49.58035 9.98278 24231 ft 397 kts 305°
2026-04-17 09:54 49.59609 9.94779 24232 ft 397 kts 305°
2026-04-17 09:54 49.61185 9.91268 24229 ft 397 kts 305°
2026-04-17 09:54 49.62756 9.87762 24228 ft 397 kts 305°
2026-04-17 09:55 49.64330 9.84248 24224 ft 397 kts 305°
2026-04-17 09:55 49.65901 9.80734 24227 ft 397 kts 305°
2026-04-17 09:55 49.67469 9.77220 24222 ft 397 kts 305°
2026-04-17 09:55 49.69015 9.73755 24224 ft 398 kts 305°
2026-04-17 09:56 49.70586 9.70229 24222 ft 398 kts 305°
2026-04-17 09:56 49.72153 9.66708 24219 ft 398 kts 305°
2026-04-17 09:56 49.73721 9.63178 24220 ft 398 kts 305°
2026-04-17 09:56 49.75286 9.59649 24222 ft 398 kts 305°
2026-04-17 09:57 49.76850 9.56118 24221 ft 398 kts 305°
2026-04-17 09:57 49.78412 9.52586 24219 ft 398 kts 305°
2026-04-17 09:57 49.79975 9.49049 24216 ft 398 kts 304°
2026-04-17 09:57 49.81534 9.45513 24216 ft 398 kts 304°
2026-04-17 09:58 49.83096 9.41967 24217 ft 398 kts 304°
2026-04-17 09:58 49.84656 9.38424 24215 ft 398 kts 304°
2026-04-17 09:58 49.86240 9.34899 24219 ft 399 kts 304°
2026-04-17 09:58 49.87370 9.30985 24219 ft 400 kts 288°
2026-04-17 09:59 49.88076 9.26813 24217 ft 400 kts 285°
2026-04-17 09:59 49.88754 9.22626 24216 ft 400 kts 285°
2026-04-17 09:59 49.89456 9.18507 24220 ft 400 kts 286°
2026-04-17 09:59 49.90200 9.14346 24216 ft 400 kts 287°
2026-04-17 10:00 49.90965 9.10192 24217 ft 400 kts 287°
2026-04-17 10:00 49.91740 9.06047 24216 ft 400 kts 287°
2026-04-17 10:00 49.92519 9.01895 24219 ft 400 kts 287°
2026-04-17 10:00 49.93297 8.97749 24220 ft 400 kts 287°
2026-04-17 10:01 49.94042 8.93589 24220 ft 401 kts 283°
2026-04-17 10:01 49.94757 8.89405 24225 ft 400 kts 294°
2026-04-17 10:01 49.96252 8.85801 24228 ft 399 kts 312°
2026-04-17 10:01 49.98427 8.83141 24231 ft 401 kts 330°
2026-04-17 10:02 50.01065 8.81706 24233 ft 405 kts 348°
2026-04-17 10:02 50.03890 8.81660 24232 ft 410 kts
2026-04-17 10:02 50.06620 8.83017 24229 ft 417 kts 24°
2026-04-17 10:02 50.08980 8.85676 24228 ft 424 kts 42°
2026-04-17 10:03 50.10729 8.89393 24230 ft 430 kts 60°
2026-04-17 10:03 50.11682 8.93776 24228 ft 436 kts 78°
2026-04-17 10:03 50.11758 8.98508 24221 ft 440 kts 96°
2026-04-17 10:03 50.10948 9.03117 24222 ft 442 kts 110°
2026-04-17 10:04 50.10034 9.07676 24218 ft 441 kts 100°
2026-04-17 10:04 50.09744 9.12414 24219 ft 439 kts 88°
2026-04-17 10:04 50.09988 9.17136 24220 ft 437 kts 79°
2026-04-17 10:04 50.10569 9.21765 24223 ft 435 kts 74°
2026-04-17 10:05 50.11347 9.26313 24218 ft 434 kts 71°
2026-04-17 10:05 50.12236 9.30805 24217 ft 433 kts 69°
2026-04-17 10:05 50.13177 9.35231 24166 ft 423 kts 69°
2026-04-17 10:05 50.14119 9.39501 23970 ft 411 kts 66°
2026-04-17 10:06 50.15475 9.43250 23717 ft 393 kts 47°
2026-04-17 10:06 50.17434 9.45891 23426 ft 356 kts 26°
2026-04-17 10:06 50.19641 9.47038 23118 ft 316 kts
2026-04-17 10:06 50.21651 9.46606 22820 ft 275 kts 333°
2026-04-17 10:07 50.23084 9.44939 22551 ft 243 kts 314°
2026-04-17 10:07 50.23829 9.42777 22210 ft 221 kts 282°
2026-04-17 10:07 50.23782 9.41197 21785 ft 222 kts 261°
2026-04-17 10:07 50.23195 9.38927 20889 ft 230 kts 249°
2026-04-17 10:08 50.22505 9.36586 19725 ft 245 kts 250°
2026-04-17 10:08 50.21822 9.34104 18743 ft 249 kts 250°
2026-04-17 10:08 50.21172 9.31594 18071 ft 248 kts 251°
2026-04-17 10:08 50.20552 9.29089 17366 ft 246 kts 252°
2026-04-17 10:09 50.19952 9.26593 16751 ft 244 kts 252°
2026-04-17 10:09 50.19368 9.24124 16110 ft 242 kts 252°
2026-04-17 10:09 50.18793 9.21671 15476 ft 240 kts 252°
2026-04-17 10:09 50.18225 9.19230 14872 ft 238 kts 252°
2026-04-17 10:10 50.17664 9.16812 14279 ft 236 kts 252°
2026-04-17 10:10 50.17102 9.14413 13643 ft 235 kts 252°
2026-04-17 10:10 50.16547 9.12023 13001 ft 233 kts 251°
2026-04-17 10:11 50.15471 9.07306 11767 ft 229 kts 252°
2026-04-17 10:11 50.14947 9.04975 11153 ft 227 kts 252°
2026-04-17 10:11 50.14422 9.02671 10583 ft 225 kts 251°
2026-04-17 10:11 50.13894 9.00386 10046 ft 222 kts 251°
2026-04-17 10:12 50.13370 8.98131 9412 ft 220 kts 251°
2026-04-17 10:12 50.12858 8.95921 8678 ft 214 kts 251°
2026-04-17 10:12 50.12354 8.93766 7905 ft 213 kts 250°
2026-04-17 10:12 50.11847 8.91609 7183 ft 211 kts 250°
2026-04-17 10:13 50.11347 8.89471 6454 ft 209 kts 249°
2026-04-17 10:13 50.10843 8.87362 5687 ft 206 kts 249°
2026-04-17 10:13 50.10347 8.85268 4895 ft 205 kts 250°
2026-04-17 10:13 50.09861 8.83197 4119 ft 203 kts 249°
2026-04-17 10:14 50.09377 8.81141 3420 ft 202 kts 249°
2026-04-17 10:14 50.08894 8.79099 2817 ft 198 kts 249°
2026-04-17 10:14 50.08403 8.77093 2094 ft 198 kts 247°
2026-04-17 10:14 50.07924 8.75121 1482 ft 187 kts 249°
2026-04-17 10:15 50.07503 8.73342 1239 ft 166 kts 249°
2026-04-17 10:15 50.07084 8.71589 1243 ft 177 kts 249°
2026-04-17 10:15 50.06657 8.69801 1237 ft 179 kts 249°
2026-04-17 10:15 50.06222 8.67977 1237 ft 180 kts 249°
2026-04-17 10:16 50.05779 8.66152 1239 ft 181 kts 249°
2026-04-17 10:16 50.05354 8.64313 1191 ft 183 kts 250°
2026-04-17 10:16 50.04898 8.62418 955 ft 187 kts 250°
2026-04-17 10:16 50.04461 8.60587 687 ft 172 kts 249°
2026-04-17 10:17 50.04066 8.58921 458 ft 158 kts 250°
2026-04-17 10:17 50.03706 8.57398 356 ft 144 kts 250°
2026-04-17 10:17 50.03388 8.56063 359 ft 103 kts 250°
2026-04-17 10:17 50.03249 8.55479 357 ft 14 kts 250°
2026-04-17 10:18 50.03193 8.55245 357 ft 48 kts 249°
2026-04-17 10:18 50.03054 8.54687 359 ft 83 kts 249°
2026-04-17 10:18 50.02727 8.53300 403 ft 183 kts 249°
2026-04-17 10:18 50.02245 8.51315 1293 ft 208 kts 249°
2026-04-17 10:19 50.01753 8.49151 1908 ft 217 kts 250°
2026-04-17 10:19 50.01279 8.46854 2514 ft 229 kts 252°
2026-04-17 10:19 50.00864 8.44387 3210 ft 243 kts 255°
2026-04-17 10:19 50.00520 8.41721 3924 ft 258 kts 260°
2026-04-17 10:20 50.00347 8.38893 4665 ft 268 kts 267°
2026-04-17 10:20 50.00449 8.36051 5416 ft 259 kts 277°
2026-04-17 10:20 50.00899 8.33520 6036 ft 226 kts 292°
2026-04-17 10:20 50.01729 8.31694 6459 ft 192 kts 317°
2026-04-17 10:21 50.02826 8.30849 6711 ft 165 kts 351°
2026-04-17 10:21 50.03906 8.31342 6898 ft 175 kts 44°
2026-04-17 10:21 50.04261 8.33016 7114 ft 170 kts 107°
2026-04-17 10:21 50.03481 8.34284 7244 ft 164 kts 169°
2026-04-17 10:22 50.02472 8.33799 7270 ft 166 kts 232°
2026-04-17 10:22 50.02293 8.32089 7283 ft 166 kts 292°
2026-04-17 10:22 50.03177 8.31066 7273 ft 182 kts 356°
2026-04-17 10:22 50.04120 8.31877 8252 ft 152 kts 69°
2026-04-17 10:23 50.03978 8.33374 9175 ft 146 kts 133°
2026-04-17 10:23 50.03039 8.34646 8818 ft 216 kts 144°
2026-04-17 10:23 50.02034 8.36816 7760 ft 290 kts 115°
2026-04-17 10:23 50.01231 8.40067 5988 ft 336 kts 110°
2026-04-17 10:24 50.00495 8.43605 3971 ft 368 kts 107°